Regional Weather Roundup
Issued by NWS

Home | Current Version | Previous Version | Graphics & Text | Print | Product List | Glossary On
Versions: 1 2 3 4 5 6 7 8 9 10 11 12 13 14 15 16 17 18 19 20 21 22 23 24 25 26 27 28 29 30 31 32 33 34 35 36 37 38 39 40 41 42 43 44 45 46 47 48 49 50
000
ASUS43 KLMK 271802
RWRKY
KENTUCKY REGIONAL WEATHER ROUNDUP
NATIONAL WEATHER SERVICE LOUISVILLE KY
200 PM EDT SAT MAY 27 2017

NOTE "FAIR" INDICATES FEW OR NO CLOUDS BELOW 12,000 FEET
WITH NO SIGNIFICANT WEATHER AND/OR OBSTRUCTIONS TO VISIBILITY.

KYZ001>023-026-027-061>063-070>075-271900-
WESTERN AND SOUTH CENTRAL KENTUCKY

CITY           SKY/WX    TMP DP  RH WIND       PRES   REMARKS
PADUCAH        CLOUDY    81  68  64 SW10G20   29.88F
HENDERSON      PTSUNNY   83  72  69 SW8       29.88S
OWENSBORO      PTSUNNY   85  72  65 S9        29.88F HX  91
HOPKINSVILLE   MOSUNNY   83  68  60 S8        29.91F
BOWLING GREEN  PTSUNNY   80  71  74 SW14      29.93S
GLASGOW        NOT AVBL
$$

KYZ024-025-028>034-038-045-046-053-271900-
NORTH CENTRAL KENTUCKY

CITY           SKY/WX    TMP DP  RH WIND       PRES   REMARKS
LOUISVILLE/SDF PTSUNNY   83  70  64 SW10      29.88S
LOUISVILLE/LOU PTSUNNY   81  71  71 SW7       29.89R
FORT KNOX      PTSUNNY   81  70  67 SW9       29.89R
$$

KYZ035>037-039>044-047>052-055>060-089>105-271900-
NORTHEAST KENTUCKY

CITY           SKY/WX    TMP DP  RH WIND       PRES   REMARKS
LEXINGTON      MOSUNNY   80  67  64 W8        29.91F
COVINGTON      MOSUNNY   79  68  69 W9        29.89S
FRANKFORT      PTSUNNY   81  67  62 VRB5      29.89S
$$

KYZ054-064>069-076>088-106>120-271900-
SOUTHEAST KENTUCKY

CITY           SKY/WX    TMP DP  RH WIND       PRES   REMARKS
JACKSON        CLOUDY    75  66  73 VRB3      29.95F
LONDON         PTSUNNY   78  66  66 SW9       29.95F
SOMERSET       PTSUNNY   77  66  69 SW6       29.93F
MIDDLESBORO    CLOUDY    78  66  67 CALM      29.97S
MONTICELLO     CLOUDY    81  70  69 W12G17    29.95F
$$




USA.gov is the U.S. government's official web portal to all federal, state and local government web resources and services.